FW4443 Weather Reports


Display with metric or nautical units.
time (UTC)temp
F
wind
direction
speed
MPH
gust
MPH
rain 1hr
in
rain 24hr
in
rain mn
in
humidity
%
barometer
mb
20260831022306 94 252 8.0 17.0 0.00 0.00 0.00 17 1006.9
20260831021941 94 262 8.0 17.0 0.00 0.00 0.00 17 1006.9
20260831021314 94 248 7.0 17.0 0.00 0.00 0.00 16 1006.9
20260831020648 94 276 6.0 13.0 0.00 0.00 0.00 17 1006.9
20260831020332 94 267 6.0 13.0 0.00 0.00 0.00 16 1006.9
20260831020017 94 256 6.0 13.0 0.00 0.00 0.00 17 1006.9
20260831015703 94 238 6.0 13.0 0.00 0.00 0.00 17 1006.9
20260831015339 94 237 5.0 13.0 0.00 0.00 0.00 17 1006.8
20260831015014 95 320 6.0 13.0 0.00 0.00 0.00 17 1006.9
20260831014652 95 296 6.0 14.0 0.00 0.00 0.00 17 1006.8
20260831014335 95 272 6.0 14.0 0.00 0.00 0.00 17 1006.8
20260831014011 95 252 6.0 14.0 0.00 0.00 0.00 17 1006.9
20260831013647 95 265 6.0 14.0 0.00 0.00 0.00 18 1006.8
20260831013321 95 256 7.0 14.0 0.00 0.00 0.00 17 1006.8
20260831013002 95 255 7.0 14.0 0.00 0.00 0.00 17 1006.8
20260831012646 96 271 7.0 13.0 0.00 0.00 0.00 17 1006.8
20260831012325 96 263 8.0 13.0 0.00 0.00 0.00 17 1006.8
20260831012006 96 254 7.0 13.0 0.00 0.00 0.00 17 1006.8
20260831011649 96 245 6.0 13.0 0.00 0.00 0.00 16 1006.8
20260831011326 96 254 5.0 13.0 0.00 0.00 0.00 16 1006.9
20260831011006 96 234 6.0 13.0 0.00 0.00 0.00 17 1006.8
20260831010340 97 308 7.0 13.0 0.00 0.00 0.00 16 1006.9
20260831005724 97 236 7.0 13.0 0.00 0.00 0.00 16 1006.8
20260831005358 97 260 7.0 13.0 0.00 0.00 0.00 16 1006.9
20260831004740 97 263 7.0 13.0 0.00 0.00 0.00 16 1006.9
20260831004425 97 259 6.0 12.0 0.00 0.00 0.00 17 1006.9
20260831003802 97 253 5.0 11.0 0.00 0.00 0.00 17 1006.9
20260831003444 97 263 6.0 11.0 0.00 0.00 0.00 17 1007.0
20260831003127 97 252 5.0 14.0 0.00 0.00 0.00 17 1007.0
20260831002810 97 232 5.0 14.0 0.00 0.00 0.00 17 1007.0
20260831002448 97 247 5.0 14.0 0.00 0.00 0.00 17 1007.0
20260831002124 97 199 6.0 14.0 0.00 0.00 0.00 17 1007.0
20260831001801 97 257 5.0 14.0 0.00 0.00 0.00 17 1007.2
20260831001439 97 240 5.0 14.0 0.00 0.00 0.00 17 1007.0
20260831001117 97 269 6.0 14.0 0.00 0.00 0.00 17 1007.1
20260831000754 97 286 7.0 16.0 0.00 0.00 0.00 17 1007.1
20260830235837 97 250 7.0 18.0 0.00 0.00 0.00 17 1007.1
20260830235519 98 273 7.0 18.0 0.00 0.00 0.00 17 1007.1
20260830235204 98 205 7.0 18.0 0.00 0.00 0.00 17 1007.2
20260830234843 98 259 8.0 18.0 0.00 0.00 0.00 16 1007.2
20260830234225 98 250 9.0 18.0 0.00 0.00 0.00 17 1007.2
20260830233557 98 253 9.0 16.0 0.00 0.00 0.00 16 1007.2
20260830233234 99 252 9.0 16.0 0.00 0.00 0.00 16 1007.3
20260830232919 99 244 9.0 16.0 0.00 0.00 0.00 16 1007.4
20260830232259 99 273 9.0 16.0 0.00 0.00 0.00 16 1007.4
20260830231940 99 246 9.0 18.0 0.00 0.00 0.00 17 1007.4
20260830231625 99 274 8.0 18.0 0.00 0.00 0.00 16 1007.3
20260830231308 99 331 9.0 18.0 0.00 0.00 0.00 17 1007.3
20260830230648 99 284 11.0 18.0 0.00 0.00 0.00 16 1007.4
20260830230325 99 255 11.0 18.0 0.00 0.00 0.00 16 1007.4
20260830225700 99 279 9.0 16.0 0.00 0.00 0.00 16 1007.5
20260830225343 99 260 9.0 16.0 0.00 0.00 0.00 16 1007.5
20260830225022 99 282 9.0 18.0 0.00 0.00 0.00 17 1007.4
20260830224701 99 253 9.0 18.0 0.00 0.00 0.00 16 1007.5
20260830224345 99 285 8.0 18.0 0.00 0.00 0.00 16 1007.6
20260830224031 99 250 8.0 22.0 0.00 0.00 0.00 17 1007.5
20260830223713 100 265 8.0 22.0 0.00 0.00 0.00 16 1007.6
20260830223047 99 281 10.0 22.0 0.00 0.00 0.00 17 1007.6
20260830222731 100 122 10.0 22.0 0.00 0.00 0.00 16 1007.7
20260830222417 100 256 9.0 22.0 0.00 0.00 0.00 16 1007.7
20260830222052 100 315 8.0 21.0 0.00 0.00 0.00 17 1007.7
20260830221731 100 140 8.0 18.0 0.00 0.00 0.00 16 1007.7
20260830221111 99 221 8.0 19.0 0.00 0.00 0.00 17 1007.7
20260830220748 100 200 8.0 19.0 0.00 0.00 0.00 17 1007.9
20260830220422 100 217 9.0 27.0 0.00 0.00 0.00 17 1007.9
20260830215507 99 169 7.0 27.0 0.00 0.00 0.00 17 1008.0
20260830215150 99 261 7.0 27.0 0.00 0.00 0.00 17 1008.1
20260830214835 99 232 7.0 27.0 0.00 0.00 0.00 17 1008.1
20260830214519 99 253 8.0 17.0 0.00 0.00 0.00 17 1008.2
20260830214158 100 263 8.0 17.0 0.00 0.00 0.00 17 1008.3
20260830213534 101 267 8.0 17.0 0.00 0.00 0.00 16 1008.4
20260830213213 100 273 8.0 17.0 0.00 0.00 0.00 16 1008.3
20260830212857 100 151 7.0 17.0 0.00 0.00 0.00 17 1008.4
20260830212536 100 206 6.0 17.0 0.00 0.00 0.00 17 1008.4
20260830211919 100 207 6.0 14.0 0.00 0.00 0.00 16 1008.5
20260830211257 100 288 6.0 14.0 0.00 0.00 0.00 17 1008.4
20260830210940 99 209 7.0 26.0 0.00 0.00 0.00 16 1008.7
20260830210618 99 151 9.0 26.0 0.00 0.00 0.00 16 1008.8
20260830210256 98 259 9.0 26.0 0.00 0.00 0.00 17 1008.9
20260830205335 98 64 9.0 26.0 0.00 0.00 0.00 18 1009.0
20260830205014 97 229 9.0 22.0 0.00 0.00 0.00 18 1009.1
20260830204657 97 165 10.0 22.0 0.00 0.00 0.00 18 1009.0
20260830204333 98 191 10.0 22.0 0.00 0.00 0.00 18 1009.0
20260830204012 97 182 10.0 22.0 0.00 0.00 0.00 18 1009.1
20260830203653 97 213 10.0 22.0 0.00 0.00 0.00 18 1009.1
20260830203334 97 188 9.0 22.0 0.00 0.00 0.00 18 1009.1
20260830203009 97 194 10.0 22.0 0.00 0.00 0.00 18 1009.1
20260830202650 97 166 9.0 22.0 0.00 0.00 0.00 17 1009.1
20260830202332 96 203 9.0 22.0 0.00 0.00 0.00 18 1009.2
20260830202013 96 191 7.0 17.0 0.00 0.00 0.00 18 1009.3
20260830201657 96 155 7.0 24.0 0.00 0.00 0.00 18 1009.3
20260830201332 95 143 7.0 24.0 0.00 0.00 0.00 18 1009.2
20260830201013 95 182 8.0 24.0 0.00 0.00 0.00 17 1009.3
20260830200357 96 200 8.0 24.0 0.00 0.00 0.00 17 1009.3
20260830200043 96 165 9.0 24.0 0.00 0.00 0.00 17 1009.4
20260830195426 97 216 10.0 22.0 0.00 0.00 0.00 17 1009.4
20260830195106 97 169 11.0 22.0 0.00 0.00 0.00 17 1009.4
20260830194741 97 140 10.0 22.0 0.00 0.00 0.00 16 1009.3
20260830194419 98 217 9.0 20.0 0.00 0.00 0.00 17 1009.4
20260830194058 97 156 9.0 20.0 0.00 0.00 0.00 17 1009.4
20260830193741 96 152 9.0 20.0 0.00 0.00 0.00 17 1009.4
20260830193422 95 195 10.0 20.0 0.00 0.00 0.00 18 1009.6
20260830193107 94 182 9.0 18.0 0.00 0.00 0.00 18 1009.7
20260830192742 95 202 9.0 18.0 0.00 0.00 0.00 18 1009.6
20260830192423 95 200 8.0 21.0 0.00 0.00 0.00 18 1009.6
20260830192102 95 217 9.0 21.0 0.00 0.00 0.00 19 1009.7
20260830191739 94 163 9.0 21.0 0.00 0.00 0.00 18 1009.7
20260830191419 94 242 9.0 21.0 0.00 0.00 0.00 18 1009.8
20260830191058 94 213 9.0 21.0 0.00 0.00 0.00 18 1009.7
20260830190736 94 215 9.0 21.0 0.00 0.00 0.00 18 1009.7
20260830190409 94 217 9.0 20.0 0.00 0.00 0.00 18 1009.7
20260830190047 94 173 8.0 17.0 0.00 0.00 0.00 18 1009.7
20260830185726 94 180 8.0 17.0 0.00 0.00 0.00 19 1009.7
20260830185410 94 230 9.0 17.0 0.00 0.00 0.00 18 1009.8
20260830185055 94 158 8.0 17.0 0.00 0.00 0.00 19 1009.8
20260830184736 94 164 8.0 17.0 0.00 0.00 0.00 18 1009.8
20260830184416 94 162 8.0 16.0 0.00 0.00 0.00 18 1009.7
20260830184059 94 211 7.0 18.0 0.00 0.00 0.00 18 1009.7
20260830183741 95 211 7.0 18.0 0.00 0.00 0.00 18 1009.6
20260830182516 95 200 8.0 18.0 0.00 0.00 0.00 18 1009.8
20260830182151 95 166 7.0 18.0 0.00 0.00 0.00 18 1009.6
20260830181527 95 133 6.0 15.0 0.00 0.00 0.00 18 1009.7
20260830181209 95 161 6.0 15.0 0.00 0.00 0.00 18 1009.7
20260830180850 95 202 5.0 15.0 0.00 0.00 0.00 18 1009.7
20260830180236 95 197 6.0 11.0 0.00 0.00 0.00 18 1009.7
20260830175917 95 175 5.0 11.0 0.00 0.00 0.00 17 1009.8
20260830175558 96 224 5.0 20.0 0.00 0.00 0.00 17 1009.8
20260830175236 96 182 6.0 20.0 0.00 0.00 0.00 17 1009.7
20260830174613 96 136 7.0 20.0 0.00 0.00 0.00 17 1009.8
20260830173952 96 186 6.0 20.0 0.00 0.00 0.00 17 1009.7
20260830173631 95 151 5.0 13.0 0.00 0.00 0.00 18 1009.7
20260830173306 95 194 6.0 13.0 0.00 0.00 0.00 18 1009.7
20260830172943 95 194 5.0 13.0 0.00 0.00 0.00 18 1009.7
20260830172619 95 289 5.0 13.0 0.00 0.00 0.00 17 1009.7
20260830172306 95 258 4.0 14.0 0.00 0.00 0.00 17 1009.6
20260830171938 93 241 5.0 14.0 0.00 0.00 0.00 19 1009.6
20260830171318 93 144 7.0 14.0 0.00 0.00 0.00 18 1009.6
20260830170958 93 215 7.0 14.0 0.00 0.00 0.00 18 1009.6
20260830170639 93 215 6.0 14.0 0.00 0.00 0.00 18 1009.6
20260830170315 94 183 5.0 14.0 0.00 0.00 0.00 18 1009.6
20260830165951 94 285 5.0 12.0 0.00 0.00 0.00 18 1009.5
20260830165636 94 191 4.0 12.0 0.00 0.00 0.00 18 1009.5
20260830164709 92 191 4.0 13.0 0.00 0.00 0.00 20 1009.5
20260830164343 92 217 5.0 13.0 0.00 0.00 0.00 20 1009.5
20260830164026 91 165 5.0 13.0 0.00 0.00 0.00 20 1009.4
20260830163703 91 204 5.0 13.0 0.00 0.00 0.00 20 1009.4
20260830163338 91 238 4.0 13.0 0.00 0.00 0.00 20 1009.5
20260830162720 91 194 4.0 13.0 0.00 0.00 0.00 20 1009.5
20260830162401 91 220 5.0 15.0 0.00 0.00 0.00 20 1009.4
20260830162042 91 212 5.0 15.0 0.00 0.00 0.00 20 1009.5
20260830161723 92 178 6.0 15.0 0.00 0.00 0.00 19 1009.5
20260830161406 91 260 7.0 15.0 0.00 0.00 0.00 20 1009.3
20260830160747 90 161 6.0 15.0 0.00 0.00 0.00 21 1009.3
20260830160430 90 159 6.0 14.0 0.00 0.00 0.00 21 1009.3
20260830160105 91 161 7.0 14.0 0.00 0.00 0.00 20 1009.3
20260830155742 91 158 7.0 14.0 0.00 0.00 0.00 20 1009.2
20260830155423 90 171 6.0 14.0 0.00 0.00 0.00 20 1009.2
20260830155107 89 178 5.0 12.0 0.00 0.00 0.00 21 1009.2
20260830154443 88 215 5.0 12.0 0.00 0.00 0.00 22 1009.2
20260830153824 88 208 4.0 12.0 0.00 0.00 0.00 22 1009.3
20260830153510 88 258 3.0 12.0 0.00 0.00 0.00 22 1009.4
20260830152855 88 153 4.0 10.0 0.00 0.00 0.00 22 1009.4
20260830152531 88 183 4.0 10.0 0.00 0.00 0.00 23 1009.4
20260830152209 87 177 4.0 10.0 0.00 0.00 0.00 24 1009.4
20260830151845 87 142 5.0 10.0 0.00 0.00 0.00 23 1009.3
20260830151520 87 155 5.0 10.0 0.00 0.00 0.00 24 1009.4
20260830151201 87 173 5.0 11.0 0.00 0.00 0.00 24 1009.4
20260830150845 87 167 4.0 11.0 0.00 0.00 0.00 23 1009.4
20260830150526 87 155 4.0 11.0 0.00 0.00 0.00 23 1009.4
20260830150203 87 142 4.0 11.0 0.00 0.00 0.00 23 1009.3
20260830145841 87 169 4.0 11.0 0.00 0.00 0.00 23 1009.3
20260830145522 87 190 4.0 11.0 0.00 0.00 0.00 23 1009.3
20260830144906 87 234 6.0 16.0 0.00 0.00 0.00 23 1009.2
20260830144548 88 221 7.0 16.0 0.00 0.00 0.00 23 1009.2
20260830144233 88 238 7.0 16.0 0.00 0.00 0.00 22 1009.2
20260830143609 88 242 8.0 16.0 0.00 0.00 0.00 23 1009.1
20260830143247 88 190 7.0 14.0 0.00 0.00 0.00 23 1009.1
20260830142922 88 227 7.0 14.0 0.00 0.00 0.00 23 1009.2
20260830142554 88 222 7.0 14.0 0.00 0.00 0.00 23 1009.1
20260830142235 87 184 7.0 14.0 0.00 0.00 0.00 24 1009.1
20260830141917 87 207 6.0 14.0 0.00 0.00 0.00 24 1009.1
20260830141251 86 211 6.0 17.0 0.00 0.00 0.00 24 1008.9
20260830140935 86 200 7.0 17.0 0.00 0.00 0.00 24 1008.9
20260830140611 86 188 7.0 17.0 0.00 0.00 0.00 25 1008.9
20260830140253 86 213 6.0 17.0 0.00 0.00 0.00 25 1008.9
20260830135630 86 223 5.0 13.0 0.00 0.00 0.00 25 1008.9
20260830135011 85 217 4.0 9.0 0.00 0.00 0.00 26 1008.9
20260830134647 85 153 4.0 9.0 0.00 0.00 0.00 26 1008.9
20260830134324 85 208 4.0 9.0 0.00 0.00 0.00 26 1008.8
20260830133707 85 157 3.0 7.0 0.00 0.00 0.00 26 1008.7
20260830133345 86 141 3.0 9.0 0.00 0.00 0.00 26 1008.5
20260830133021 86 159 4.0 9.0 0.00 0.00 0.00 25 1008.6
20260830132700 86 146 4.0 9.0 0.00 0.00 0.00 26 1008.5
20260830132035 86 146 5.0 16.0 0.00 0.00 0.00 26 1008.4
20260830131115 86 183 7.0 16.0 0.00 0.00 0.00 26 1008.3
20260830130457 86 207 6.0 13.0 0.00 0.00 0.00 26 1007.9
20260830130137 86 191 6.0 13.0 0.00 0.00 0.00 26 1007.9
20260830125812 86 236 5.0 13.0 0.00 0.00 0.00 27 1007.7
20260830125449 86 207 4.0 11.0 0.00 0.00 0.00 27 1007.6
20260830125122 86 182 4.0 11.0 0.00 0.00 0.00 27 1007.6
20260830124803 86 200 3.0 11.0 0.00 0.00 0.00 27 1007.5
20260830124438 86 184 3.0 8.0 0.00 0.00 0.00 28 1007.4
20260830124123 85 225 3.0 8.0 0.00 0.00 0.00 28 1007.5
20260830123805 85 204 3.0 8.0 0.00 0.00 0.00 28 1007.5
20260830123147 86 196 3.0 7.0 0.00 0.00 0.00 28 1007.6
20260830122823 86 160 4.0 7.0 0.00 0.00 0.00 28 1007.5
20260830122506 86 163 4.0 7.0 0.00 0.00 0.00 28 1007.5
20260830122152 86 186 3.0 7.0 0.00 0.00 0.00 28 1007.5
20260830121830 86 169 2.0 5.0 0.00 0.00 0.00 28 1007.4
20260830121510 86 165 2.0 5.0 0.00 0.00 0.00 27 1007.4
20260830121145 87 163 2.0 10.0 0.00 0.00 0.00 27 1007.3
20260830120824 87 213 3.0 10.0 0.00 0.00 0.00 27 1007.3
20260830120500 87 194 5.0 10.0 0.00 0.00 0.00 26 1007.3
20260830120135 87 240 6.0 15.0 0.00 0.00 0.00 27 1007.2
20260830115809 87 217 6.0 15.0 0.00 0.00 0.00 27 1007.1
20260830115445 87 192 7.0 15.0 0.00 0.00 0.00 27 1007.1
20260830115129 87 238 7.0 18.0 0.00 0.00 0.00 27 1007.0
20260830114207 87 242 9.0 18.0 0.00 0.00 0.00 27 1006.9
20260830113846 87 246 9.0 18.0 0.00 0.00 0.00 27 1006.9
20260830113528 87 254 9.0 18.0 0.00 0.00 0.00 27 1007.0
20260830113204 87 225 8.0 16.0 0.00 0.00 0.00 27 1006.9
20260830112841 87 232 8.0 16.0 0.00 0.00 0.00 27 1007.0
20260830112524 87 208 7.0 15.0 0.00 0.00 0.00 27 1007.0
20260830112204 87 229 7.0 14.0 0.00 0.00 0.00 28 1007.0
20260830111849 87 194 7.0 15.0 0.00 0.00 0.00 28 1007.0
20260830111533 87 142 7.0 15.0 0.00 0.00 0.00 28 1007.0
20260830111208 87 216 7.0 15.0 0.00 0.00 0.00 28 1007.0
20260830110853 87 221 7.0 15.0 0.00 0.00 0.00 28 1007.1
20260830110538 87 148 6.0 15.0 0.00 0.00 0.00 28 1007.0
20260830110224 87 202 6.0 15.0 0.00 0.00 0.00 27 1006.9
20260830105602 88 179 6.0 11.0 0.00 0.00 0.00 26 1006.8
20260830105241 88 155 6.0 17.0 0.00 0.00 0.00 26 1006.7
20260830104920 88 218 6.0 17.0 0.00 0.00 0.00 26 1006.6
20260830104559 88 218 7.0 19.0 0.00 0.00 0.00 26 1006.6
20260830104242 88 259 9.0 19.0 0.00 0.00 0.00 25 1006.6
20260830103918 88 276 10.0 19.0 0.00 0.00 0.00 25 1006.4
20260830103556 88 242 10.0 19.0 0.00 0.00 0.00 25 1006.3
20260830102932 88 264 12.0 19.0 0.00 0.00 0.00 25 1006.3
20260830102618 89 255 11.0 19.0 0.00 0.00 0.00 25 1006.3
20260830102256 89 261 10.0 19.0 0.00 0.00 0.00 25 1006.2
20260830101936 89 289 10.0 19.0 0.00 0.00 0.00 25 1006.2
20260830101612 89 277 11.0 19.0 0.00 0.00 0.00 25 1006.2
20260830101250 89 244 12.0 19.0 0.00 0.00 0.00 25 1006.2
20260830100934 89 251 12.0 24.0 0.00 0.00 0.00 25 1006.2
20260830100611 89 259 11.0 24.0 0.00 0.00 0.00 25 1006.1
20260830100253 89 262 11.0 24.0 0.00 0.00 0.00 25 1006.1
20260830095937 89 248 12.0 24.0 0.00 0.00 0.00 25 1006.2
20260830095619 89 277 13.0 24.0 0.00 0.00 0.00 25 1006.1
20260830095306 89 234 12.0 24.0 0.00 0.00 0.00 25 1006.2
20260830094945 89 236 10.0 22.0 0.00 0.00 0.00 25 1006.2
20260830094626 89 232 11.0 22.0 0.00 0.00 0.00 25 1006.2
20260830094307 89 238 10.0 21.0 0.00 0.00 0.00 25 1006.1
20260830093946 89 261 11.0 21.0 0.00 0.00 0.00 25 1006.2
20260830093620 89 258 9.0 24.0 0.00 0.00 0.00 25 1006.2
20260830093001 89 239 9.0 24.0 0.00 0.00 0.00 25 1006.3
20260830092645 89 221 10.0 24.0 0.00 0.00 0.00 25 1006.3
20260830092320 89 242 10.0 24.0 0.00 0.00 0.00 25 1006.3
20260830092000 89 247 10.0 24.0 0.00 0.00 0.00 25 1006.3
20260830091641 89 227 10.0 19.0 0.00 0.00 0.00 25 1006.2
20260830091328 89 267 11.0 19.0 0.00 0.00 0.00 24 1006.2
20260830091005 89 236 10.0 19.0 0.00 0.00 0.00 24 1006.4
20260830090644 89 260 10.0 19.0 0.00 0.00 0.00 24 1006.4
20260830090327 89 248 9.0 19.0 0.00 0.00 0.00 24 1006.4
20260830090002 89 339 9.0 19.0 0.00 0.00 0.00 23 1006.3
20260830085640 90 225 10.0 19.0 0.00 0.00 0.00 22 1006.4
20260830085320 90 231 10.0 19.0 0.00 0.00 0.00 22 1006.4
20260830084658 90 253 10.0 19.0 0.00 0.00 0.00 22 1006.4
20260830084336 90 259 10.0 22.0 0.00 0.00 0.00 22 1006.5
20260830083115 90 270 12.0 24.0 0.00 0.00 0.00 22 1006.5
20260830082756 90 284 12.0 24.0 0.00 0.00 0.00 22 1006.5
20260830082141 90 265 10.0 28.0 0.00 0.00 0.00 23 1006.4
20260830081522 90 235 10.0 28.0 0.00 0.00 0.00 22 1006.5
20260830081204 90 231 11.0 28.0 0.00 0.00 0.00 23 1006.6
20260830080844 90 223 11.0 28.0 0.00 0.00 0.00 23 1006.6
20260830080520 90 235 11.0 28.0 0.00 0.00 0.00 23 1006.7
20260830080156 90 275 10.0 18.0 0.00 0.00 0.00 22 1006.6
20260830075833 90 267 10.0 17.0 0.00 0.00 0.00 23 1006.6
20260830075508 90 271 10.0 17.0 0.00 0.00 0.00 22 1006.6
20260830075144 90 257 10.0 19.0 0.00 0.00 0.00 23 1006.7
20260830074521 90 254 10.0 19.0 0.00 0.00 0.00 23 1006.9
20260830074158 91 267 10.0 22.0 0.00 0.00 0.00 23 1006.9
20260830073842 91 284 11.0 22.0 0.00 0.00 0.00 23 1006.8
20260830073516 91 250 11.0 22.0 0.00 0.00 0.00 23 1006.8
20260830073151 91 272 11.0 22.0 0.00 0.00 0.00 23 1006.8
20260830072828 91 246 10.0 22.0 0.00 0.00 0.00 23 1007.0
20260830072504 91 252 10.0 22.0 0.00 0.00 0.00 23 1007.0
20260830071839 91 252 11.0 23.0 0.00 0.00 0.00 23 1007.0
20260830071213 91 240 12.0 23.0 0.00 0.00 0.00 23 1006.9
20260830070851 91 253 11.0 27.0 0.00 0.00 0.00 23 1006.9
20260830070526 91 244 11.0 27.0 0.00 0.00 0.00 23 1007.0
20260830070211 91 259 12.0 27.0 0.00 0.00 0.00 23 1007.0
20260830064955 91 263 10.0 21.0 0.00 0.00 0.00 23 1006.9
20260830064638 91 282 11.0 21.0 0.00 0.00 0.00 23 1007.0
20260830064317 91 250 12.0 21.0 0.00 0.00 0.00 23 1007.0
20260830063958 91 254 12.0 21.0 0.00 0.00 0.00 23 1007.0
20260830063639 91 233 11.0 21.0 0.00 0.00 0.00 24 1007.0
20260830063321 92 244 10.0 22.0 0.00 0.00 0.00 23 1006.9
20260830063002 92 256 10.0 22.0 0.00 0.00 0.00 24 1006.9
20260830062634 92 252 10.0 22.0 0.00 0.00 0.00 23 1006.8
20260830062309 92 248 11.0 22.0 0.00 0.00 0.00 23 1006.9
20260830061951 92 267 11.0 22.0 0.00 0.00 0.00 23 1006.8
20260830061327 92 267 12.0 21.0 0.00 0.00 0.00 24 1006.8
20260830061001 92 276 11.0 21.0 0.00 0.00 0.00 23 1006.8
20260830060637 92 277 11.0 21.0 0.00 0.00 0.00 24 1006.8
20260830060018 92 244 9.0 19.0 0.00 0.00 0.00 23 1006.9
20260830055700 92 268 9.0 19.0 0.00 0.00 0.00 24 1006.9
20260830055346 92 281 10.0 19.0 0.00 0.00 0.00 23 1006.9
20260830055026 92 298 10.0 19.0 0.00 0.00 0.00 23 1007.0
20260830054359 92 267 9.0 17.0 0.00 0.00 0.00 23 1007.0
20260830054037 93 229 9.0 17.0 0.00 0.00 0.00 23 1007.1
20260830053715 93 253 9.0 17.0 0.00 0.00 0.00 23 1007.1
20260830053052 93 259 8.0 17.0 0.00 0.00 0.00 23 1007.1
20260830052438 93 231 7.0 15.0 0.00 0.00 0.00 23 1007.1
20260830052116 93 250 8.0 15.0 0.00 0.00 0.00 23 1007.1
20260830051753 93 213 8.0 15.0 0.00 0.00 0.00 23 1007.1
20260830051439 93 277 9.0 16.0 0.00 0.00 0.00 23 1007.2
20260830051113 93 250 8.0 16.0 0.00 0.00 0.00 23 1007.2
20260830050755 93 224 8.0 16.0 0.00 0.00 0.00 23 1007.1
20260830050435 93 242 8.0 16.0 0.00 0.00 0.00 23 1007.2
20260830050112 93 265 8.0 16.0 0.00 0.00 0.00 23 1007.2
20260830045750 93 223 9.0 16.0 0.00 0.00 0.00 23 1007.2
20260830045434 93 251 8.0 20.0 0.00 0.00 0.00 23 1007.1
20260830045111 94 239 9.0 20.0 0.00 0.00 0.00 23 1007.2
20260830044450 94 200 9.0 20.0 0.00 0.00 0.00 23 1007.2
20260830044128 94 255 10.0 20.0 0.00 0.00 0.00 23 1007.2
20260830043800 94 248 10.0 20.0 0.00 0.00 0.00 23 1007.2
20260830043140 94 261 9.0 18.0 0.00 0.00 0.00 23 1007.2
20260830042823 94 261 9.0 18.0 0.00 0.00 0.00 23 1007.2
20260830042457 94 256 9.0 18.0 0.00 0.00 0.00 23 1007.0
20260830042135 94 236 8.0 18.0 0.00 0.00 0.00 23 1006.9
20260830041819 94 261 9.0 18.0 0.00 0.00 0.00 23 1007.0
20260830041457 94 244 9.0 16.0 0.00 0.00 0.00 23 1006.9
20260830041135 94 245 9.0 16.0 0.00 0.00 0.00 23 1006.9
20260830040819 94 239 9.0 16.0 0.00 0.00 0.00 23 1006.9
20260830040454 94 244 8.0 16.0 0.00 0.00 0.00 23 1006.9
20260830035828 95 248 7.0 16.0 0.00 0.00 0.00 23 1006.8
20260830035501 95 251 7.0 16.0 0.00 0.00 0.00 23 1006.8
20260830035134 95 223 7.0 14.0 0.00 0.00 0.00 23 1006.7
20260830034812 95 192 7.0 14.0 0.00 0.00 0.00 23 1006.7
20260830034456 95 242 7.0 14.0 0.00 0.00 0.00 23 1006.7
20260830034139 95 254 6.0 14.0 0.00 0.00 0.00 22 1006.7
20260830033824 95 279 6.0 14.0 0.00 0.00 0.00 23 1006.6
20260830033508 95 259 7.0 14.0 0.00 0.00 0.00 23 1006.6
20260830033154 95 254 8.0 18.0 0.00 0.00 0.00 22 1006.5
20260830032229 96 256 7.0 18.0 0.00 0.00 0.00 22 1006.4
20260830031912 96 260 7.0 18.0 0.00 0.00 0.00 22 1006.3
20260830031553 96 256 7.0 18.0 0.00 0.00 0.00 22 1006.3
20260830031232 96 259 6.0 13.0 0.00 0.00 0.00 22 1006.3
20260830030917 96 302 7.0 13.0 0.00 0.00 0.00 22 1006.1
20260830030601 96 234 6.0 13.0 0.00 0.00 0.00 22 1006.0
20260830030241 96 268 6.0 13.0 0.00 0.00 0.00 21 1006.1
20260830025625 96 272 4.0 11.0 0.00 0.00 0.00 22 1006.0
20260830025310 97 254 5.0 13.0 0.00 0.00 0.00 21 1005.9
20260830024956 97 260 6.0 13.0 0.00 0.00 0.00 21 1005.8
20260830024633 97 241 7.0 13.0 0.00 0.00 0.00 21 1005.8
20260830024315 97 279 8.0 16.0 0.00 0.00 0.00 21 1005.8
20260830023950 97 250 8.0 16.0 0.00 0.00 0.00 21 1005.7
20260830023624 97 286 7.0 16.0 0.00 0.00 0.00 21 1005.7
20260830023302 97 282 6.0 16.0 0.00 0.00 0.00 21 1005.8
20260830022941 97 252 7.0 16.0 0.00 0.00 0.00 21 1005.7
20260830022616 98 267 8.0 16.0 0.00 0.00 0.00 22 1005.8